Probability
0 0 0 0 0 0 0 0 0 0 0 0 0 0 0 0 0 0 0 0 0 0 0 0 0 0 0 0 0 0 0 0 0 0 0 0 0 0 0 0 0 0 0 0
0 0 0 0 0 0 0 0 0 0 0 0 0 0 0 0 0 0 0 0 0 0 0 0 0 0 0 0 0 0 0 0 0 0 0 0 0 0 0 0 0 0 0 0
0 0 0 0 0 0 0 0 0 0 0 0 0 0 0 0 0 0 0 0 0 0 0 0 0 0 0 0 0 0 0 0 0 0 0 0 0 0 0 0 0 0 0 0
0 0 0 0 0 0 0 0 0 0 0 0 0 0 0 0 0 0 0 0 0 0 0 0 0 0 0 0 0 0 0 0 0 0 0 0 0 0 0 0 0 0 0 0
0 0 0 0 0 0 0 0 0 0 0 0 0 0 0 0 0 0 0 0 0 0 0 0 0 0 0 0 0 0 0 0 0 0 0 0 0 0 0 0 0 0 0 0
0 0 0 0 0 0 0 0 0 0 0 0 0 0 0 0 0 0 0 0 0 0 0 0 0 0 0 0 0 0 0 0 0 0 0 0 0 0 0 0 0 0 0 0
0 0 0 0 0 0 0 0 0 0 0 0 0 0 0 0 0 0 0 0 0 0 0 0 0 0 0 0 0 0 0 0 0 0 0 0 0 0 0 0 0 0 0 0
0 0 0 0 0 0 0 0 0 0 0 0 0 0 0 0 0 0 0 0 0 0 0 0 0 0 0 0 0 0 0 0 0 0 0 0 0 0 0 0 0 0 0 0
0 0 0 0 0 0 0 0 0 0 0 0 0 0 0 0 0 0 0 0 0 0 0 0 0 0 0 0 0 0 0 0 0 0 0 0 0 0 0 0 0 0 0 0
0 0 0 0 0 0 0 0 0 0 0 0 0 0 0 0 0 0 0 0 0 0 0 0 0 0 0 0 0 0 0 0 0 0 0 0 0 0 0 0 0 0 0 0
0 0 0 0 0 0 0 0 0 0 0 0 0 0 0 0 0 0 0 0 0 0 0 0 0 0 0 0 0 0 0 0 0 0 0 0 0 0 0 0 0 0 0 0
0 0 0 0 0 0 0 0 0 0 0 0 0 0 0 0 0 0 0 0 0 0 0 0 0 0 0 0 0 0 0 0 0 0 0 0 0 0 0 0 0 0 0 0
0 0 0 0 0 0 0 0 0 0 0 0 0 0 0 0 0 0 0 0 0 0 0 0 0 0 0 0 0 0 0 0 0 0 0 0 0 0 0 0 0 0 0 0
0 0 0 0 0 0 0 0 0 0 0 0 0 0 0 0 0 0 0 0 0 0 0 0 0 0 0 0 0 0 0 0 0 0 0 0 0 0 0 0 0 0 0 0
0 0 0 0 0 0 0 0 0 0 0 0 0 0 0 0 0 0 0 0 0 0 0 0 0 0 0 0 0 0 0 0 0 0 0 0 0 0 0 0 0 0 0 0
0 0 0 0 0 0 0 0 0 0 0 0 0 0 0 0 0 0 0 0 0 0 0 0 0 0 0 0 0 0 0 0 0 0 0 0 0 0 0 0 0 0 0 0
0 0 0 0 0 0 0 0 0 0 0 0 0 0 0 0 0 0 0 0 0 0 0 0 0 0 0 0 0 0 0 0 0 0 0 0 0 0 0 0 0 0 0 0
0 0 0 0 0 0 0 0 0 0 0 0 0 0 0 0 0 0 0 0 0 0 0 0 0 0 0 0 0 0 0 0 0 0 0 0 0 0 0 0 0 0 0 0
0 0 0 0 0 0 0 0 0 0 0 0 0 0 0 0 0 0 0 0 0 0 0 0 0 0 0 0 0 0 0 0 0 0 0 0 0 0 0 0 0 0 0 0
0 0 0 0 0 0 0 0 0 0 0 0 0 0 0 0 0 0 0 0 0 0 0 0 0 0 0 0 0 0 0 0 0 0 0 0 0 0 0 0 0 0 0 0
0 0 0 0 0 0 0 0 0 0 0 0 0 0 0 0 0 0 0 0 0 0 0 0 0 0 0 0 0 0 0 0 0 0 0 0 0 0 0 0 0 0 0 0
0 0 0 0 0 0 0 0 0 0 0 0 0 0 0 0 0 0 0 0 0 0 0 0 0 0 0 0 0 0 0 0 0 0 0 0 0 0 0 0 0 0 0 0
0 0 0 0 0 0 0 0 0 0 0 0 0 0 0 0 0 0 0 0 0 0 0 0 0 0 0 0 0 0 0 0 0 0 0 0 0 0 0 0 0 0 0 0
0 0 0 0 0 0 0 0 0 0 0 0 0 0 0 0 0 0 0 0 0 0 0 0 0 0 0 0 0 0 0 0 0 0 0 0 0 0 0 0 0 0 0 0
0 0 0 0 0 0 0 0 0 0 0 0 0 0 0 0 0 0 0 0 0 0 0 0 0 0 0 0 0 0 0 0 0 0 0 0 0 0 0 0 0 0 0 0
0 0 0 0 0 0 0 0 0 0 0 0 0 0 0 0 0 0 0 0 0 0 0 0 0 0 0 0 0 0 0 0 0 0 0 0 0 0 0 0 0 0 0 0
0 0 0 0 0 0 0 0 0 0 0 0 0 0 0 0 0 0 0 0 0 0 0 0 0 0 0 0 0 0 0 0 0 0 0 0 0 0 0 0 0 0 0 0
Height
5619 5616 5612 5609 5606 5603 5598 5594 5590 5588 5585 5583 5579 5576 5573 5570 5566 5563 5560 5557 5554 5551 5549 5547 5544 5542 5540 5538 5536 5534 5533 5532 5531 5531 5530 5530 5531 5531 5532 5533 5534 5536 5537 5539
5610 5607 5603 5600 5598 5593 5589 5585 5581 5578 5576 5574 5570 5567 5564 5561 5557 5554 5551 5548 5544 5541 5539 5536 5534 5532 5529 5527 5525 5523 5522 5520 5519 5518 5517 5517 5518 5518 5518 5519 5520 5521 5522 5524
5599 5597 5592 5590 5589 5584 5580 5576 5572 5569 5567 5564 5561 5558 5555 5551 5548 5544 5541 5538 5534 5531 5528 5526 5523 5521 5518 5516 5514 5512 5510 5509 5507 5506 5505 5505 5505 5505 5505 5505 5506 5507 5508 5509
5589 5586 5582 5583 5578 5573 5569 5567 5563 5559 5557 5554 5551 5548 5545 5541 5537 5534 5530 5527 5524 5521 5518 5515 5512 5510 5507 5505 5503 5501 5499 5497 5495 5494 5493 5492 5491 5491 5492 5492 5492 5493 5494 5495
5578 5574 5571 5572 5568 5563 5559 5557 5554 5550 5547 5544 5541 5538 5536 5532 5527 5524 5520 5517 5514 5510 5507 5504 5501 5499 5496 5494 5492 5489 5487 5485 5483 5482 5480 5479 5479 5478 5478 5478 5479 5479 5480 5481
5569 5564 5561 5563 5558 5552 5549 5547 5545 5540 5536 5533 5530 5527 5527 5522 5518 5514 5510 5507 5503 5500 5497 5494 5491 5488 5485 5483 5480 5478 5476 5473 5471 5470 5468 5467 5467 5466 5466 5466 5466 5466 5467 5467
5560 5554 5552 5552 5548 5543 5540 5538 5533 5529 5526 5523 5520 5517 5514 5511 5507 5503 5500 5496 5493 5489 5486 5483 5480 5477 5474 5472 5469 5466 5463 5461 5459 5458 5457 5455 5455 5454 5453 5453 5453 5453 5454 5454
5550 5546 5546 5542 5537 5534 5530 5526 5522 5518 5515 5512 5509 5506 5502 5499 5496 5492 5489 5485 5482 5478 5475 5473 5470 5466 5463 5460 5457 5454 5452 5449 5447 5446 5444 5443 5442 5441 5441 5440 5440 5440 5440 5441
5542 5540 5536 5531 5527 5523 5520 5516 5512 5508 5505 5502 5498 5495 5492 5488 5485 5481 5478 5475 5471 5468 5465 5462 5459 5455 5452 5449 5446 5443 5440 5437 5435 5434 5432 5431 5430 5429 5429 5428 5427 5427 5427 5428
5531 5529 5525 5521 5517 5513 5509 5505 5501 5497 5494 5490 5487 5484 5481 5477 5474 5470 5467 5463 5460 5457 5454 5451 5447 5443 5440 5437 5434 5431 5428 5426 5424 5423 5421 5419 5418 5417 5416 5416 5415 5415 5415 5416
5521 5519 5515 5512 5507 5503 5499 5495 5491 5487 5484 5480 5476 5473 5469 5466 5463 5460 5456 5453 5449 5446 5443 5440 5436 5432 5428 5425 5422 5419 5417 5415 5413 5411 5410 5408 5407 5405 5404 5404 5403 5403 5403 5403
5511 5508 5504 5501 5497 5493 5489 5485 5481 5477 5474 5470 5466 5462 5459 5455 5452 5449 5446 5442 5439 5435 5432 5428 5424 5421 5417 5414 5411 5408 5406 5404 5402 5400 5399 5397 5396 5394 5393 5392 5391 5391 5391 5391
5501 5497 5494 5491 5487 5483 5479 5475 5471 5467 5463 5460 5456 5452 5449 5445 5442 5439 5436 5432 5429 5425 5421 5417 5414 5410 5407 5404 5401 5398 5396 5394 5392 5390 5388 5387 5385 5384 5383 5382 5381 5380 5380 5380
5491 5488 5485 5482 5478 5474 5470 5466 5462 5458 5454 5450 5446 5442 5439 5436 5433 5429 5426 5423 5419 5415 5411 5407 5404 5400 5397 5394 5391 5388 5386 5384 5382 5380 5378 5376 5375 5374 5373 5372 5371 5370 5369 5369
5481 5478 5475 5472 5468 5464 5460 5456 5452 5448 5444 5440 5436 5433 5430 5426 5423 5420 5417 5413 5409 5406 5402 5398 5395 5391 5388 5385 5382 5379 5376 5374 5372 5370 5368 5367 5365 5364 5363 5362 5361 5360 5359 5358
5472 5469 5465 5462 5458 5454 5450 5446 5442 5438 5435 5431 5427 5424 5421 5417 5414 5411 5408 5404 5400 5397 5393 5389 5386 5382 5379 5376 5373 5370 5367 5365 5363 5361 5359 5358 5356 5355 5353 5352 5351 5350 5349 5347
5462 5459 5455 5452 5448 5444 5440 5436 5433 5429 5425 5422 5418 5415 5412 5409 5405 5402 5399 5395 5392 5388 5384 5380 5377 5373 5370 5367 5364 5361 5359 5356 5354 5352 5351 5349 5347 5346 5344 5343 5341 5340 5339 5337
5452 5449 5445 5441 5438 5434 5430 5427 5423 5419 5416 5412 5409 5406 5403 5400 5397 5393 5390 5386 5383 5379 5376 5372 5368 5365 5361 5358 5355 5353 5351 5348 5346 5344 5342 5341 5339 5337 5336 5334 5333 5331 5330 5328
5442 5439 5435 5431 5428 5424 5421 5417 5414 5410 5407 5403 5400 5397 5394 5391 5388 5384 5381 5378 5374 5371 5367 5363 5360 5356 5353 5350 5347 5345 5342 5340 5338 5337 5335 5333 5332 5330 5328 5327 5325 5323 5322 5320
5433 5429 5426 5422 5419 5415 5412 5408 5405 5401 5398 5395 5392 5389 5386 5383 5379 5376 5373 5369 5366 5362 5359 5355 5352 5349 5345 5342 5339 5337 5335 5333 5331 5329 5327 5326 5324 5323 5321 5319 5318 5316 5314 5313
5423 5420 5417 5413 5410 5406 5403 5399 5396 5393 5390 5387 5384 5381 5378 5375 5371 5368 5364 5361 5358 5354 5351 5348 5344 5341 5338 5335 5332 5329 5327 5325 5323 5321 5320 5318 5317 5315 5314 5312 5310 5308 5306 5305
5414 5411 5407 5404 5400 5397 5394 5390 5387 5384 5381 5378 5376 5373 5370 5367 5364 5360 5357 5353 5350 5347 5343 5340 5337 5333 5330 5327 5324 5322 5319 5317 5315 5313 5312 5311 5309 5308 5306 5304 5302 5301 5299 5297
5404 5401 5398 5394 5391 5388 5385 5382 5379 5376 5373 5370 5368 5365 5362 5359 5356 5353 5350 5346 5342 5339 5336 5332 5329 5326 5323 5320 5317 5315 5312 5310 5308 5306 5304 5303 5301 5300 5298 5297 5295 5293 5291 5290
5395 5391 5388 5385 5382 5379 5376 5373 5370 5367 5365 5362 5360 5357 5354 5352 5349 5345 5342 5338 5335 5331 5328 5324 5321 5318 5315 5312 5310 5307 5305 5302 5300 5298 5296 5295 5293 5292 5291 5289 5288 5286 5284 5283
5385 5382 5379 5376 5373 5370 5367 5364 5362 5359 5356 5354 5352 5349 5346 5343 5341 5337 5334 5331 5327 5324 5320 5317 5314 5310 5307 5304 5302 5299 5297 5294 5292 5290 5289 5287 5286 5285 5283 5282 5280 5279 5278 5276
5376 5373 5370 5367 5364 5361 5358 5356 5353 5351 5348 5346 5344 5341 5338 5336 5333 5329 5326 5323 5320 5316 5313 5309 5306 5303 5299 5296 5294 5291 5289 5287 5284 5283 5281 5280 5278 5277 5276 5275 5273 5272 5271 5270
5367 5364 5361 5359 5356 5353 5350 5347 5345 5343 5340 5338 5336 5333 5331 5328 5325 5322 5319 5315 5312 5309 5305 5302 5298 5295 5292 5289 5286 5284 5281 5279 5277 5275 5274 5273 5271 5270 5269 5268 5266 5265 5264 5262
Wind_Speed
36 36 37 37 37 37 36 37 38 38 37 36 36 36 35 35 36 37 37 38 38 38 37 37 38 39 39 39 39 39 39 40 41 42 43 44 46 47 48 48 50 51 52 52
37 37 38 39 38 37 37 37 38 38 37 36 36 36 35 36 37 38 37 38 38 38 37 38 38 38 38 37 37 37 38 39 40 41 42 44 45 46 46 47 48 50 50 50
40 39 40 40 38 37 37 37 38 38 37 37 36 36 37 38 38 38 38 38 38 39 38 38 38 38 37 37 37 37 38 39 40 41 42 43 45 45 46 46 46 47 48 50
41 41 41 40 38 38 38 38 37 37 37 37 37 37 37 38 39 38 38 38 38 38 38 38 37 38 37 38 38 38 38 39 39 40 40 41 43 44 45 45 46 47 47 48
42 42 42 40 39 39 39 38 37 37 38 38 38 38 37 39 39 39 39 39 39 38 38 37 37 37 37 37 38 38 39 39 39 39 39 40 41 41 43 44 44 45 45 46
41 42 42 40 39 39 40 39 37 38 38 38 39 40 39 39 39 39 39 39 39 38 38 37 37 37 37 37 38 38 38 39 40 39 39 40 40 40 40 41 42 43 44 45
41 42 42 40 39 38 39 39 38 38 38 39 39 40 40 40 40 40 39 39 39 38 38 38 37 37 37 37 37 38 39 40 40 40 40 39 40 40 41 41 42 42 43 44
40 41 41 41 40 40 40 39 39 39 39 39 39 39 40 40 40 40 39 39 39 39 38 38 38 38 37 38 38 38 38 38 39 39 39 40 40 40 41 42 42 42 42 43
41 42 42 41 41 41 41 41 41 41 40 40 40 40 40 40 40 39 39 39 38 38 38 38 38 39 39 39 38 38 37 37 37 38 38 38 39 39 39 40 41 41 41 42
42 41 40 40 39 39 39 40 40 40 40 41 41 41 40 40 39 39 38 38 37 37 38 38 38 39 39 39 39 38 38 37 37 37 37 37 37 38 38 39 39 39 40 40
40 40 41 39 38 38 38 39 39 39 39 40 40 40 40 40 39 38 37 37 37 38 38 38 38 38 38 38 38 38 38 37 37 36 36 35 35 35 36 37 37 38 39 39
40 40 39 37 37 38 39 39 38 38 38 38 39 39 39 38 37 37 37 37 37 37 38 38 38 37 37 37 37 36 36 35 35 34 34 34 34 34 35 35 36 36 36 37
39 38 37 36 37 38 39 38 38 38 38 38 38 38 37 37 36 37 36 36 36 36 37 37 37 36 36 36 35 35 34 34 33 33 33 33 33 33 33 33 33 34 34 35
39 38 37 37 38 38 39 38 38 38 38 38 37 37 37 36 36 36 35 35 35 35 35 35 34 34 34 34 34 33 33 32 31 31 31 31 31 31 31 31 31 32 33 34
38 38 38 38 38 38 38 38 38 38 37 36 36 36 36 36 36 35 35 35 35 34 34 34 34 33 33 33 32 31 31 30 30 29 29 29 29 29 29 30 30 31 31 32
37 38 38 38 38 38 38 38 37 36 36 35 35 35 35 35 35 34 34 34 34 33 33 33 33 33 32 32 31 30 30 29 28 28 28 28 28 28 28 29 29 30 30 30
37 37 37 37 38 37 37 37 36 36 35 34 34 34 34 34 34 34 33 34 33 33 34 33 32 32 31 31 30 29 29 28 28 27 27 27 27 27 27 27 27 27 27 28
37 37 37 38 38 37 36 36 36 35 35 34 33 33 33 33 33 33 33 33 33 33 33 32 32 31 30 30 29 28 28 27 27 27 26 26 25 25 25 25 25 25 25 25
36 36 37 37 36 35 35 34 34 34 33 32 32 31 31 32 32 32 32 32 32 32 31 31 30 30 29 28 28 27 27 26 26 25 24 24 24 24 24 24 24 24 24 24
35 36 35 35 35 34 34 34 33 33 32 31 30 30 31 32 32 32 32 31 31 30 30 30 29 29 28 28 27 26 26 25 25 24 23 23 23 23 23 23 24 24 24 24
35 35 35 35 34 34 34 33 32 32 31 31 30 30 31 31 31 31 30 30 30 29 29 29 29 29 28 27 26 26 25 25 24 24 24 24 24 23 23 24 24 24 25 25
35 35 35 34 33 33 32 32 31 31 30 30 30 29 29 29 29 29 29 29 29 29 29 29 28 28 28 27 26 25 25 24 24 24 24 24 24 24 24 24 24 24 24 24
35 35 34 34 33 33 32 31 30 30 29 29 29 28 28 28 28 28 28 28 29 29 28 28 28 27 27 26 25 24 24 24 24 24 24 24 24 24 24 24 23 23 23 23
35 34 34 33 33 32 31 30 29 29 28 28 28 28 28 28 28 28 29 29 29 28 28 27 28 27 27 26 25 25 24 24 24 24 24 24 24 24 23 22 22 23 23 23
34 33 33 32 32 32 31 30 29 29 28 28 28 28 28 28 28 28 28 28 28 28 28 27 28 28 27 27 26 26 25 24 24 24 24 24 24 23 22 22 22 22 22 22
32 32 31 31 31 31 30 29 29 28 28 28 28 28 28 28 28 28 28 28 28 28 28 28 28 27 26 26 25 25 24 24 23 23 23 23 22 22 22 22 22 22 22 22
31 31 31 30 30 30 29 28 28 28 27 27 27 27 27 27 27 27 27 27 27 27 27 27 26 26 25 24 24 23 23 23 22 22 22 21 22 22 21 21 22 22 22 22
Wind_Direction
300 300 300 299 299 298 297 298 297 298 298 297 297 297 297 295 293 293 293 292 291 290 288 287 286 286 283 281 280 278 276 273 271 269 267 265 264 264 263 262 261 261 261 261
300 300 299 299 300 299 298 297 297 297 296 296 296 296 296 295 294 293 293 293 292 290 288 287 287 286 285 283 281 279 277 274 273 271 269 267 266 265 265 264 263 262 260 260
300 301 300 299 302 300 299 297 296 296 296 295 294 295 296 296 295 294 293 293 293 291 289 288 287 286 285 284 283 281 279 277 276 275 273 269 266 265 265 265 264 262 260 260
301 300 299 302 301 299 297 296 296 296 295 294 296 296 296 296 297 296 295 295 294 294 292 290 288 287 286 284 283 283 281 279 277 276 274 271 268 266 266 266 265 263 262 261
302 300 299 300 301 300 298 297 297 296 294 294 295 296 296 296 296 297 296 296 295 295 294 293 290 288 287 286 285 284 283 281 279 278 275 273 271 269 268 267 266 265 264 262
301 300 302 303 302 300 298 298 298 297 296 295 295 295 295 295 296 295 295 296 295 294 294 293 292 290 289 287 286 284 283 282 280 279 278 276 274 272 271 269 268 266 264 264
300 300 301 303 303 300 299 299 298 296 296 295 296 296 296 295 295 294 294 294 295 295 294 293 292 292 291 290 288 285 283 282 281 278 278 276 274 272 271 270 269 267 265 264
299 298 300 301 299 297 297 297 297 296 296 296 296 296 295 295 295 294 294 294 293 294 294 293 293 293 293 293 291 287 285 283 281 279 277 276 275 274 272 271 270 268 266 265
297 298 298 298 297 297 297 297 297 296 296 296 295 296 296 296 295 295 294 294 294 293 293 293 293 293 292 292 291 289 286 284 283 280 278 278 277 276 275 274 271 269 267 266
297 298 299 299 299 299 298 298 298 298 298 297 296 295 294 294 294 294 294 294 293 293 293 293 294 294 294 292 291 290 289 286 284 282 281 281 279 277 276 275 272 270 268 266
298 299 298 298 298 299 299 299 299 298 299 299 298 297 296 295 294 294 295 295 294 294 294 294 295 295 294 293 292 290 289 287 285 283 283 283 281 279 278 276 274 271 268 267
298 299 299 299 299 300 300 300 300 299 299 299 300 299 298 297 294 294 295 296 296 296 296 295 295 295 295 294 292 291 289 287 286 285 284 284 282 280 279 278 275 273 271 270
298 299 298 299 300 300 300 300 300 300 300 301 299 298 298 297 295 295 295 297 297 297 297 297 297 296 295 294 293 291 289 287 286 286 285 283 281 280 280 278 276 274 272 271
298 298 298 299 299 300 300 299 299 300 301 301 299 298 298 297 297 296 296 297 298 298 298 298 298 298 297 295 294 293 290 288 287 287 287 285 282 281 280 278 277 276 274 271
298 298 298 299 299 299 300 300 299 300 300 300 299 299 298 298 297 297 298 299 300 300 300 300 299 299 298 297 296 293 290 289 289 289 288 287 285 283 282 280 280 280 277 275
297 298 299 300 300 300 300 300 300 300 299 298 298 298 298 298 297 297 297 299 301 301 303 302 301 300 299 298 297 294 292 290 290 290 289 288 286 285 284 283 283 282 280 277
298 298 299 299 300 300 299 299 300 300 300 299 299 298 298 299 298 298 298 300 301 302 304 304 303 302 300 299 297 295 292 291 290 289 288 287 286 286 286 285 284 284 282 280
298 298 299 300 301 301 300 300 300 300 300 299 299 299 299 300 300 301 301 301 302 303 304 304 304 303 301 299 297 295 292 290 288 287 287 287 286 286 287 288 287 287 286 284
299 299 300 302 301 302 302 302 302 301 301 299 298 298 299 300 300 301 302 303 303 303 303 304 304 303 302 301 298 296 293 290 288 287 287 288 288 288 288 289 290 289 289 287
299 300 301 301 301 302 303 303 303 302 301 299 298 299 300 301 301 302 303 304 304 304 304 304 305 305 304 303 300 297 294 292 290 289 287 287 288 288 288 290 291 290 290 289
300 301 301 300 301 301 302 302 302 300 300 299 299 299 301 302 304 304 304 304 305 305 304 305 305 305 305 303 301 298 295 293 291 289 287 287 288 287 288 289 290 290 290 290
300 300 301 301 301 302 302 301 300 299 299 300 300 300 301 304 305 305 305 305 305 305 304 305 305 305 305 304 301 299 297 295 293 290 287 287 287 287 288 288 289 289 289 289
300 300 301 300 300 301 301 300 298 298 298 299 299 300 302 304 304 304 305 306 306 305 305 305 306 306 305 303 301 299 297 295 294 291 288 287 287 287 288 288 289 289 289 289
299 299 299 299 299 300 300 299 298 297 297 297 298 299 301 303 304 305 306 306 306 306 306 306 305 305 304 302 300 299 298 296 294 292 289 287 286 287 287 288 288 289 290 289
300 299 298 298 299 299 298 297 297 297 296 297 298 299 301 303 303 305 306 306 306 306 306 306 306 306 304 302 301 299 298 297 294 292 289 287 286 285 286 288 290 290 289 289
299 299 299 299 299 299 298 297 296 297 297 297 298 300 302 303 304 305 306 306 307 307 308 308 307 307 307 304 302 301 299 297 295 292 290 287 286 285 285 287 288 289 289 289
298 299 299 299 299 298 297 297 297 298 298 298 298 300 302 303 304 305 307 308 308 309 309 309 309 308 308 307 305 303 300 298 296 293 291 289 288 287 287 287 287 287 287 288